period_start,C,m1,H,J0,J1,J2,J3,J4,J5,JA,JB,JC,JD,JJ,JK,JN,#
2017-04-27 00:01:32,0.07,0.93,0.00,24.28,27.18,30.16,14.30,48.78,1008.84,2030.98,3118.69,2834.67,3238.19,600.06,588.96,13.79,0000 0000 0000 0000 000000
2017-04-27 00:06:33,0.08,0.94,0.00,24.30,27.20,30.16,14.29,48.83,1008.85,2030.95,3116.87,2833.62,3236.85,600.19,589.14,13.84,0000 0000 0000 0000 000000
2017-04-27 00:11:34,0.07,0.94,0.00,24.30,27.21,30.18,14.26,48.87,1008.83,2030.93,3115.21,2832.70,3235.68,600.01,588.94,13.89,0000 0000 0000 0000 000000
2017-04-27 00:16:35,0.01,0.94,0.00,24.33,27.22,30.19,14.30,48.92,1008.83,2030.67,3114.34,2831.80,3234.71,600.03,588.88,13.94,0000 0000 0000 0000 000000
2017-04-27 00:21:37,0.05,0.95,0.00,24.35,27.24,30.20,14.27,48.77,1008.82,2030.48,3113.11,2830.93,3233.72,599.78,588.54,13.99,0000 0000 0000 0000 000000
2017-04-27 00:26:38,0.04,0.95,0.00,24.38,27.25,30.21,14.32,48.82,1008.82,2030.09,3111.63,2829.93,3232.52,600.02,588.81,14.04,0000 0000 0000 0000 000000
2017-04-27 00:31:39,0.06,0.95,0.00,24.38,27.27,30.22,14.33,48.90,1008.82,2030.07,3110.21,2829.02,3231.42,599.94,588.69,14.09,0000 0000 0000 0000 000000
2017-04-27 00:36:41,0.06,0.96,0.00,24.38,27.28,30.24,14.27,48.88,1008.82,2030.07,3108.91,2828.11,3230.39,599.74,588.64,14.14,0000 0000 0000 0000 000000
2017-04-27 00:41:42,0.07,0.96,0.00,24.41,27.30,30.22,14.23,48.75,1008.82,2030.04,3107.58,2827.14,3229.26,599.96,588.62,14.19,0000 0000 0000 0000 000000
2017-04-27 00:46:44,0.08,0.96,0.00,24.44,27.31,30.22,14.29,48.91,1008.81,2030.03,3105.94,2826.16,3228.01,599.95,588.45,14.24,0000 0000 0000 0000 000000
2017-04-27 00:51:45,0.06,0.97,0.00,24.44,27.33,30.21,14.23,48.80,1008.80,2030.01,3104.48,2825.22,3226.90,599.84,588.40,14.29,0000 0000 0000 0000 000000
2017-04-27 00:56:46,0.05,0.97,0.00,24.47,27.35,30.25,14.29,48.83,1008.81,2030.00,3103.59,2824.37,3225.96,600.16,588.66,14.34,0000 0000 0000 0000 000000
2017-04-27 01:01:47,0.07,0.97,0.00,24.46,27.36,30.24,14.31,49.02,1008.80,2030.00,3102.39,2823.47,3224.81,599.81,588.34,14.39,0000 0000 0000 0000 000000
2017-04-27 01:06:49,0.08,0.98,0.00,24.47,27.37,30.25,14.27,48.90,1008.80,2030.00,3100.66,2822.28,3223.60,600.15,588.65,14.44,0000 0000 0000 0000 000000
2017-04-27 01:11:50,0.07,0.98,0.00,24.50,27.40,30.27,14.29,48.90,1008.80,2030.00,3099.29,2821.41,3222.48,599.84,588.36,14.49,0000 0000 0000 0000 000000
2017-04-27 01:16:51,0.06,0.98,0.00,24.51,27.41,30.26,14.23,48.93,1008.80,2029.99,3097.99,2820.47,3221.40,599.65,588.05,14.54,0000 0000 0000 0000 000000
2017-04-27 01:21:52,0.06,0.99,0.00,24.48,27.43,30.27,14.28,48.96,1008.80,2029.98,3096.74,2819.55,3220.33,600.15,588.72,14.59,0000 0000 0000 0000 000000
2017-04-27 01:26:53,0.08,0.99,0.00,24.53,27.45,30.28,14.36,48.97,1008.80,2029.97,3095.04,2818.48,3219.04,600.47,588.87,14.64,0000 0000 0000 0000 000000
2017-04-27 01:31:55,0.08,0.99,0.00,24.54,27.47,30.29,14.19,48.93,1008.80,2029.96,3093.45,2817.50,3217.76,599.96,588.40,14.69,0000 0000 0000 0000 000000
2017-04-27 01:36:56,0.03,1.00,0.00,24.54,27.49,30.29,14.24,48.96,1008.80,2029.84,3092.49,2816.72,3216.81,599.76,588.20,14.74,0000 0000 0000 0000 000000
2017-04-27 01:41:58,0.05,1.00,0.00,24.54,27.50,30.29,14.31,49.01,1008.80,2029.81,3091.20,2815.86,3215.80,600.49,588.91,14.79,0000 0000 0000 0000 000000
2017-04-27 01:46:59,0.04,1.00,0.00,24.48,27.52,30.31,14.24,48.98,1008.80,2029.58,3089.77,2814.95,3214.74,599.62,588.14,14.84,0000 0000 0000 0000 000000
2017-04-27 01:52:00,0.03,1.00,0.00,24.49,27.55,30.33,14.28,48.98,1008.80,2029.13,3088.45,2814.02,3213.56,599.78,588.20,14.89,0000 0000 0000 0000 000000
2017-04-27 01:57:01,0.06,1.01,0.00,24.49,27.56,30.32,14.28,48.98,1008.80,2029.04,3087.14,2813.05,3212.49,599.95,588.40,14.94,0000 0000 0000 0000 000000
2017-04-27 02:02:03,0.06,1.01,0.00,24.50,27.58,30.34,14.30,48.98,1008.80,2029.00,3085.69,2812.12,3211.31,599.83,588.33,14.99,0000 0000 0000 0000 000000
2017-04-27 02:07:04,0.06,1.01,0.00,24.48,27.60,30.34,14.33,49.03,1008.80,2029.00,3084.47,2811.20,3210.28,600.16,588.67,15.04,0000 0000 0000 0000 000000
2017-04-27 02:12:05,0.06,1.02,0.00,24.49,27.62,30.35,14.24,48.92,1008.80,2029.00,3083.14,2810.25,3209.17,599.57,587.98,15.10,0000 0000 0000 0000 000000
2017-04-27 02:17:06,0.06,1.02,0.00,24.47,27.65,30.36,14.25,49.05,1008.80,2029.00,3081.88,2809.32,3208.05,599.74,588.35,15.15,0000 0000 0000 0000 000000
2017-04-27 02:22:07,0.07,1.02,0.00,24.48,27.66,30.36,14.43,49.05,1008.80,2029.00,3080.36,2808.37,3206.85,600.25,588.75,15.20,0000 0000 0000 0000 000000
2017-04-27 02:27:09,0.08,1.03,0.00,24.50,27.68,30.38,14.29,49.10,1008.80,2028.98,3078.70,2807.39,3205.65,600.09,588.56,15.25,0000 0000 0000 0000 000000
2017-04-27 02:32:10,0.08,1.03,0.00,24.51,27.70,30.38,14.26,49.03,1008.80,2028.97,3076.94,2806.21,3204.33,599.64,588.07,15.30,0000 0000 0000 0000 000000
2017-04-27 02:37:11,0.07,1.04,0.00,24.50,27.72,30.40,14.27,49.02,1008.80,2028.87,3075.15,2805.12,3202.91,599.82,588.35,15.35,0000 0000 0000 0000 000000
2017-04-27 02:42:12,0.08,1.04,0.00,24.50,27.74,30.42,14.28,49.08,1008.80,2028.81,3073.46,2804.10,3201.64,599.94,588.55,15.40,0000 0000 0000 0000 000000
2017-04-27 02:47:13,0.08,1.05,0.00,24.51,27.76,30.42,14.26,49.07,1008.80,2028.87,3071.83,2803.14,3200.52,599.53,587.98,15.45,0000 0000 0000 0000 000000
2017-04-27 02:52:14,0.02,1.05,0.00,24.53,27.77,30.43,14.31,49.11,1008.80,2028.44,3070.24,2802.06,3199.24,600.12,588.62,15.50,0000 0000 0000 0000 000000
2017-04-27 02:57:15,0.05,1.05,0.00,24.52,27.80,30.43,14.27,49.08,1008.80,2028.25,3068.69,2801.06,3198.02,599.82,588.20,15.55,0000 0000 0000 0000 000000
2017-04-27 03:02:17,0.07,1.05,0.00,24.53,27.82,30.44,14.30,49.01,1008.80,2028.08,3067.20,2800.07,3196.81,600.16,588.51,15.60,0000 0000 0000 0000 000000
2017-04-27 03:07:18,0.07,1.06,0.00,24.56,27.84,30.45,14.27,49.05,1008.80,2028.02,3065.66,2799.13,3195.65,600.09,588.41,15.65,0000 0000 0000 0000 000000
2017-04-27 03:12:19,0.07,1.06,0.00,24.58,27.86,30.46,14.32,49.01,1008.80,2028.01,3064.23,2798.09,3194.47,600.17,588.50,15.70,0000 0000 0000 0000 000000
2017-04-27 03:17:21,0.07,1.06,0.00,24.61,27.87,30.46,14.25,49.06,1008.80,2028.00,3062.83,2797.16,3193.43,599.71,587.93,15.75,0000 0000 0000 0000 000000
2017-04-27 03:22:22,0.07,1.07,0.00,24.63,27.90,30.47,14.27,49.11,1008.80,2028.00,3061.41,2796.20,3192.23,600.17,588.45,15.80,0000 0000 0000 0000 000000
2017-04-27 03:27:23,0.06,1.07,0.00,24.63,27.91,30.49,14.28,49.16,1008.80,2028.00,3060.19,2795.34,3191.22,599.89,588.23,15.85,0000 0000 0000 0000 000000
2017-04-27 03:32:25,0.07,1.07,0.00,24.66,27.93,30.51,14.24,49.14,1008.80,2028.00,3058.90,2794.50,3190.19,599.60,587.88,15.90,0000 0000 0000 0000 000000
2017-04-27 03:37:26,0.05,1.08,0.00,24.67,27.95,30.52,14.28,49.07,1008.80,2028.00,3057.73,2793.75,3189.13,600.14,588.28,15.95,0000 0000 0000 0000 000000
2017-04-27 03:42:27,0.05,1.08,0.00,24.70,27.96,30.53,14.30,49.13,1008.80,2028.00,3056.54,2793.00,3188.22,600.10,588.15,16.00,0000 0000 0000 0000 000000
2017-04-27 03:47:28,0.06,1.08,0.00,24.75,27.97,30.53,14.32,49.04,1008.80,2027.99,3055.58,2792.19,3187.34,600.31,588.26,16.05,0000 0000 0000 0000 000000
2017-04-27 03:52:30,0.05,1.09,0.00,24.78,27.99,30.53,14.35,49.22,1008.80,2027.97,3054.41,2791.48,3186.41,600.13,588.05,16.10,0000 0000 0000 0000 000000
2017-04-27 03:57:31,0.05,1.09,0.00,24.83,28.00,30.52,14.25,49.11,1008.81,2027.92,3053.19,2790.67,3185.35,599.58,587.37,16.15,0000 0000 0000 0000 000000
2017-04-27 04:02:32,0.05,1.09,0.00,24.89,28.02,30.54,14.26,49.11,1008.80,2027.95,3052.05,2789.97,3184.43,599.56,587.24,16.20,0000 0000 0000 0000 000000
2017-04-27 04:07:33,0.05,1.09,0.00,24.94,28.04,30.55,14.34,49.02,1008.81,2027.90,3050.94,2789.18,3183.59,600.02,587.63,16.25,0000 0000 0000 0000 000000
2017-04-27 04:12:34,0.00,1.10,0.00,24.99,28.06,30.59,14.23,49.08,1008.80,2027.42,3049.88,2788.38,3182.58,599.92,587.48,16.30,0000 0000 0000 0000 000000
2017-04-27 04:17:36,0.04,1.10,0.00,25.04,28.07,30.61,14.25,49.08,1008.81,2027.12,3048.79,2787.64,3181.68,599.71,587.22,16.35,0000 0000 0000 0000 000000
2017-04-27 04:22:37,0.03,1.10,0.00,25.09,28.10,30.64,14.20,49.02,1008.83,2027.07,3047.84,2786.91,3180.79,599.74,587.05,16.40,0000 0000 0000 0000 000000
2017-04-27 04:27:38,0.05,1.10,0.00,25.13,28.12,30.67,14.20,49.08,1008.82,2027.01,3046.69,2786.12,3179.87,599.87,587.11,16.45,0000 0000 0000 0000 000000
2017-04-27 04:32:40,0.06,1.11,0.00,25.19,28.14,30.70,14.30,49.02,1008.82,2027.00,3045.67,2785.28,3178.93,600.33,587.33,16.50,0000 0000 0000 0000 000000
2017-04-27 04:37:41,0.06,1.11,0.00,25.25,28.16,30.72,14.31,49.03,1008.82,2027.00,3044.46,2784.51,3177.98,600.18,586.96,16.55,0000 0000 0000 0000 000000
2017-04-27 04:42:43,0.03,1.11,0.00,25.30,28.19,30.73,14.25,48.88,1008.82,2026.99,3043.70,2783.95,3177.09,600.19,587.10,16.60,0000 0000 0000 0000 000000
2017-04-27 04:47:44,0.07,1.11,0.00,25.35,28.21,30.76,14.26,49.02,1008.84,2026.98,3042.58,2783.07,3176.23,599.80,586.68,16.65,0000 0000 0000 0000 000000
2017-04-27 04:52:45,0.05,1.12,0.00,25.40,28.24,30.80,14.16,49.03,1008.87,2026.90,3041.45,2782.23,3175.27,599.66,586.47,16.70,0000 0000 0000 0000 000000
2017-04-27 04:57:46,0.00,1.12,0.00,25.45,28.27,30.83,14.25,49.03,1008.85,2026.36,3040.37,2781.36,3174.27,599.77,586.51,16.75,0000 0000 0000 0000 000000
2017-04-27 05:02:48,0.04,1.12,0.00,25.50,28.31,30.88,14.27,49.02,1008.87,2026.05,3039.39,2780.65,3173.37,600.33,586.86,16.80,0000 0000 0000 0000 000000
2017-04-27 05:07:49,0.04,1.12,0.00,25.55,28.34,30.91,14.23,48.98,1008.96,2026.01,3038.16,2779.95,3172.40,600.25,586.69,16.85,0000 0000 0000 0000 000000
2017-04-27 05:12:50,0.06,1.12,0.00,25.61,28.37,30.97,14.17,49.04,1009.02,2026.00,3037.17,2779.12,3171.59,599.89,586.33,16.90,0000 0000 0000 0000 000000
2017-04-27 05:17:51,0.05,1.13,0.00,25.66,28.40,30.99,14.23,49.06,1009.03,2026.00,3036.34,2778.39,3170.82,600.00,586.43,16.95,0000 0000 0000 0000 000000
2017-04-27 05:22:52,0.07,1.13,0.00,25.72,28.44,31.02,14.16,48.98,1008.92,2025.99,3035.21,2777.54,3169.73,599.77,585.97,17.00,0000 0000 0000 0000 000000
2017-04-27 05:27:54,0.06,1.13,0.00,25.76,28.48,31.07,14.14,49.06,1008.99,2025.95,3033.84,2776.66,3168.62,599.75,585.84,17.05,0000 0000 0000 0000 000000
2017-04-27 05:32:55,0.00,1.13,0.00,25.81,28.51,31.11,14.29,49.06,1009.04,2025.54,3032.80,2775.82,3167.72,600.18,586.24,17.10,0000 0000 0000 0000 000000
2017-04-27 05:37:57,0.03,1.14,0.00,25.87,28.56,31.15,14.15,48.97,1008.91,2025.11,3031.84,2774.89,3166.70,599.95,585.80,17.15,0000 0000 0000 0000 000000
2017-04-27 05:42:58,0.07,1.14,0.00,25.93,28.60,31.19,14.20,49.02,1008.85,2025.02,3030.67,2773.89,3165.62,600.08,585.79,17.20,0000 0000 0000 0000 000000
2017-04-27 05:47:59,0.07,1.14,0.00,25.97,28.64,31.22,14.10,48.95,1008.85,2025.00,3029.14,2772.90,3164.34,599.79,585.34,17.25,0000 0000 0000 0000 000000
2017-04-27 05:53:00,0.05,1.15,0.00,26.02,28.68,31.27,14.18,48.92,1008.87,2025.00,3028.00,2771.95,3163.19,600.03,585.56,17.30,0000 0000 0000 0000 000000
2017-04-27 05:58:01,0.08,1.15,0.00,26.08,28.72,31.33,14.16,48.95,1008.89,2024.96,3026.75,2770.88,3162.06,599.95,585.32,17.35,0000 0000 0000 0000 000000
2017-04-27 06:03:03,0.05,1.15,0.00,26.13,28.77,31.36,14.15,48.97,1008.92,2024.58,3025.10,2769.75,3160.64,599.95,585.32,17.40,0000 0000 0000 0000 000000
2017-04-27 06:08:04,0.01,1.15,0.00,26.17,28.81,31.40,14.21,48.93,1008.96,2024.11,3023.84,2768.92,3159.49,599.91,585.30,17.45,0000 0000 0000 0000 000000
2017-04-27 06:13:05,0.06,1.16,0.00,26.21,28.86,31.44,14.20,48.96,1008.99,2024.00,3022.71,2768.07,3158.49,599.93,585.17,17.50,0000 0000 0000 0000 000000
2017-04-27 06:18:06,0.06,1.16,0.00,26.26,28.90,31.50,14.21,48.92,1009.11,2024.00,3021.72,2767.25,3157.58,599.89,585.23,17.55,0000 0000 0000 0000 000000
2017-04-27 06:23:08,0.07,1.16,0.00,26.31,28.94,31.53,14.19,48.87,1009.18,2023.98,3020.55,2766.33,3156.52,600.00,585.14,17.60,0000 0000 0000 0000 000000
2017-04-27 06:28:09,0.03,1.16,0.00,26.36,28.98,31.58,14.14,48.92,1009.26,2023.83,3019.56,2765.56,3155.58,599.51,584.71,17.65,0000 0000 0000 0000 000000
2017-04-27 06:33:11,-0.01,1.16,0.00,26.42,29.02,31.63,14.18,48.98,1009.26,2023.17,3018.67,2764.72,3154.65,600.26,585.17,17.70,0000 0000 0000 0000 000000
2017-04-27 06:38:12,0.05,1.17,0.00,26.47,29.06,31.66,14.19,48.88,1009.25,2023.00,3017.33,2763.82,3153.48,600.05,585.02,17.75,0000 0000 0000 0000 000000
2017-04-27 06:43:13,0.08,1.17,0.00,26.52,29.10,31.72,14.15,48.89,1009.24,2022.99,3016.17,2762.65,3152.36,599.87,584.64,17.80,0000 0000 0000 0000 000000
2017-04-27 06:48:15,0.14,1.18,0.00,26.56,29.15,31.77,14.17,48.93,1009.25,2022.97,3013.66,2760.84,3150.30,599.65,584.38,17.86,0000 0000 0000 0000 000000
2017-04-27 06:53:16,0.07,1.18,0.00,26.62,29.19,31.81,14.09,48.87,1009.24,2022.67,3011.51,2759.25,3148.45,599.76,584.48,17.91,0000 0000 0000 0000 000000
2017-04-27 06:58:17,0.07,1.18,0.00,26.68,29.24,31.84,14.12,48.92,1009.27,2022.13,3009.48,2757.75,3146.75,599.71,584.14,17.96,0000 0000 0000 0000 000000
2017-04-27 07:03:19,0.10,1.19,0.00,26.75,29.28,31.90,14.12,48.94,1009.28,2022.01,3007.45,2756.29,3144.98,599.78,584.14,18.01,0000 0000 0000 0000 000000
2017-04-27 07:08:20,0.13,1.20,0.00,26.79,29.32,31.95,14.14,48.88,1009.29,2022.00,3005.24,2754.63,3142.99,599.99,584.18,18.06,0000 0000 0000 0000 000000
2017-04-27 07:13:21,0.10,1.20,0.00,26.83,29.37,32.00,14.16,48.88,1009.28,2021.98,3003.27,2753.10,3141.29,600.09,584.46,18.11,0000 0000 0000 0000 000000
2017-04-27 07:18:22,0.05,1.21,0.00,26.90,29.41,32.04,14.16,48.85,1009.27,2021.66,3001.17,2751.62,3139.54,600.06,584.06,18.16,0000 0000 0000 0000 000000
2017-04-27 07:23:23,0.09,1.21,0.00,26.95,29.46,32.07,14.16,48.95,1009.26,2021.09,2998.95,2750.04,3137.61,600.07,583.99,18.21,0000 0000 0000 0000 000000
2017-04-27 07:28:25,0.09,1.21,0.00,27.00,29.51,32.12,14.23,48.83,1009.28,2021.01,2997.19,2748.74,3136.00,600.37,584.18,18.26,0000 0000 0000 0000 000000
2017-04-27 07:33:26,0.10,1.22,0.00,27.05,29.55,32.17,14.14,48.92,1009.29,2021.00,2995.41,2747.32,3134.58,600.10,583.88,18.31,0000 0000 0000 0000 000000
2017-04-27 07:38:28,0.11,1.22,0.00,27.09,29.60,32.22,14.19,48.85,1009.29,2020.95,2993.46,2745.72,3132.83,600.02,583.69,18.36,0000 0000 0000 0000 000000
2017-04-27 07:43:29,0.02,1.23,0.00,27.14,29.65,32.26,14.24,48.83,1009.29,2020.40,2991.82,2744.34,3131.30,600.46,583.94,18.41,0000 0000 0000 0000 000000
2017-04-27 07:48:31,0.10,1.23,0.00,27.19,29.70,32.30,14.03,48.76,1009.29,2020.03,2989.75,2742.78,3129.54,599.63,583.23,18.46,0000 0000 0000 0000 000000
2017-04-27 07:53:32,0.13,1.24,0.00,27.25,29.74,32.36,14.15,48.80,1009.29,2020.00,2987.48,2741.05,3127.50,600.03,583.29,18.51,0000 0000 0000 0000 000000
2017-04-27 07:58:33,0.13,1.24,0.00,27.31,29.78,32.41,14.20,48.74,1009.29,2019.98,2984.82,2739.10,3125.30,600.12,583.39,18.56,0000 0000 0000 0000 000000
2017-04-27 08:03:34,0.09,1.25,0.00,27.36,29.83,32.46,14.09,48.77,1009.29,2019.74,2982.70,2737.41,3123.39,599.88,583.03,18.61,0000 0000 0000 0000 000000
2017-04-27 08:08:35,0.07,1.25,0.00,27.42,29.88,32.51,14.16,48.85,1009.29,2019.11,2980.47,2735.69,3121.38,600.29,583.32,18.66,0000 0000 0000 0000 000000
2017-04-27 08:13:36,0.11,1.26,0.00,27.49,29.92,32.56,14.14,48.75,1009.29,2019.00,2978.46,2734.03,3119.54,599.86,582.70,18.71,0000 0000 0000 0000 000000
2017-04-27 08:18:38,0.12,1.26,0.00,27.53,29.97,32.62,14.14,48.58,1009.29,2019.00,2976.38,2732.42,3117.65,600.35,583.16,18.76,0000 0000 0000 0000 000000
2017-04-27 08:23:39,0.12,1.27,0.00,27.57,30.02,32.66,14.08,48.64,1009.30,2018.96,2974.18,2730.77,3115.76,599.99,582.72,18.81,0000 0000 0000 0000 000000
2017-04-27 08:28:40,0.07,1.28,0.00,27.61,30.06,32.70,14.14,48.68,1009.31,2018.67,2972.33,2729.24,3114.00,599.76,582.41,18.86,0000 0000 0000 0000 000000
2017-04-27 08:33:41,0.09,1.28,0.00,27.65,30.11,32.76,14.07,48.65,1009.31,2018.12,2969.99,2727.44,3111.94,599.86,582.55,18.91,0000 0000 0000 0000 000000
2017-04-27 08:38:43,0.12,1.29,0.00,27.68,30.16,32.81,14.18,48.53,1009.35,2018.02,2967.65,2725.61,3109.78,600.18,582.71,18.96,0000 0000 0000 0000 000000
2017-04-27 08:43:44,0.13,1.29,0.00,27.70,30.20,32.83,14.06,48.43,1009.46,2018.00,2965.48,2723.88,3107.85,599.75,582.36,19.01,0000 0000 0000 0000 000000
2017-04-27 08:48:45,0.11,1.30,0.00,27.72,30.25,32.88,14.05,48.55,1009.51,2017.87,2963.30,2722.16,3105.84,599.79,582.42,19.06,0000 0000 0000 0000 000000
2017-04-27 08:53:46,0.07,1.30,0.00,27.75,30.29,32.92,14.06,48.48,1009.69,2017.39,2961.21,2720.48,3103.95,599.79,582.33,19.11,0000 0000 0000 0000 000000
2017-04-27 08:58:48,0.11,1.31,0.00,27.75,30.33,32.96,14.06,48.51,1009.75,2017.05,2959.03,2718.74,3101.93,600.00,582.68,19.16,0000 0000 0000 0000 000000
2017-04-27 09:03:49,0.13,1.31,0.00,27.76,30.36,33.02,14.06,48.48,1009.77,2017.00,2956.75,2716.98,3099.92,599.87,582.51,19.21,0000 0000 0000 0000 000000
2017-04-27 09:08:50,0.13,1.32,0.00,27.76,30.40,33.06,14.10,48.53,1009.78,2017.00,2954.43,2715.21,3097.86,599.94,582.60,19.26,0000 0000 0000 0000 000000
2017-04-27 09:13:51,0.12,1.33,0.00,27.76,30.43,33.09,14.04,48.55,1009.78,2016.97,2952.23,2713.50,3095.95,599.72,582.46,19.31,0000 0000 0000 0000 000000
2017-04-27 09:18:52,0.10,1.33,0.00,27.76,30.46,33.14,14.11,48.58,1009.78,2016.75,2949.84,2711.69,3093.87,600.08,582.74,19.36,0000 0000 0000 0000 000000
2017-04-27 09:23:54,0.07,1.34,0.00,27.77,30.49,33.17,14.12,48.42,1009.78,2016.21,2947.70,2709.97,3091.90,599.99,582.64,19.41,0000 0000 0000 0000 000000
2017-04-27 09:28:55,0.11,1.34,0.00,27.77,30.51,33.20,14.24,48.47,1009.78,2016.06,2945.69,2708.42,3090.15,600.36,583.00,19.46,0000 0000 0000 0000 000000
2017-04-27 09:33:56,0.14,1.35,0.00,27.77,30.52,33.23,14.11,48.47,1009.78,2016.02,2943.29,2706.61,3088.05,599.94,582.61,19.51,0000 0000 0000 0000 000000
2017-04-27 09:38:57,0.16,1.36,0.00,27.77,30.55,33.26,13.99,48.23,1009.78,2016.00,2940.43,2704.52,3085.60,599.61,582.30,19.56,0000 0000 0000 0000 000000
2017-04-27 09:43:58,0.17,1.37,0.00,27.78,30.57,33.28,14.18,48.40,1009.78,2016.00,2937.44,2702.28,3083.08,600.04,582.69,19.61,0000 0000 0000 0000 000000
2017-04-27 09:49:00,0.17,1.38,0.00,27.77,30.58,33.32,14.05,48.41,1009.78,2016.00,2934.41,2700.02,3080.44,599.69,582.40,19.66,0000 0000 0000 0000 000000
2017-04-27 09:54:01,0.26,1.39,0.00,27.76,30.60,33.33,14.10,48.48,1009.78,2015.99,2930.15,2696.91,3076.93,600.02,582.64,19.71,0000 0000 0000 0000 000000
2017-04-27 09:59:02,0.23,1.40,0.00,27.75,30.60,33.35,14.20,48.43,1009.78,2015.98,2925.82,2693.76,3073.36,600.19,582.77,19.76,0000 0000 0000 0000 000000
2017-04-27 10:04:03,0.18,1.41,0.00,27.75,30.62,33.36,14.16,48.50,1009.78,2015.96,2922.34,2691.20,3070.60,600.00,582.67,19.81,0000 0000 0000 0000 000000
2017-04-27 10:09:04,0.12,1.42,0.00,27.74,30.62,33.37,14.13,48.35,1009.78,2015.91,2920.10,2689.50,3068.61,600.10,582.80,19.86,0000 0000 0000 0000 000000
2017-04-27 10:14:05,0.17,1.42,0.00,27.72,30.65,33.37,14.12,48.41,1009.78,2015.74,2916.80,2687.17,3065.96,600.21,582.90,19.91,0000 0000 0000 0000 000000
2017-04-27 10:19:06,0.18,1.43,0.00,27.73,30.65,33.40,14.19,48.46,1009.79,2015.55,2913.15,2684.56,3062.91,599.99,582.75,19.96,0000 0000 0000 0000 000000
2017-04-27 10:24:08,0.22,1.44,0.00,27.72,30.65,33.44,14.09,48.43,1009.81,2015.72,2909.66,2682.09,3060.03,600.03,582.78,20.01,0000 0000 0000 0000 000000
2017-04-27 10:29:09,0.20,1.45,0.00,27.71,30.66,33.37,14.10,48.39,1009.80,2015.53,2906.05,2679.46,3057.02,600.14,582.92,20.06,0000 0000 0000 0000 000000
2017-04-27 10:34:10,0.18,1.47,0.00,27.69,30.67,33.39,14.10,48.48,1009.79,2015.54,2902.49,2676.92,3054.15,600.03,582.78,20.11,0000 0000 0000 0000 000000
2017-04-27 10:39:11,0.13,1.47,0.00,27.69,30.67,33.39,14.07,48.42,1009.79,2015.32,2899.72,2674.93,3051.88,599.80,582.64,20.16,0000 0000 0000 0000 000000
2017-04-27 10:44:13,0.18,1.48,0.00,27.66,30.67,33.40,14.14,48.42,1009.79,2015.30,2896.68,2672.75,3049.37,599.85,582.70,20.21,0000 0000 0000 0000 000000
2017-04-27 10:49:14,0.21,1.49,0.00,27.65,30.67,33.40,14.11,48.32,1009.78,2015.24,2893.11,2670.20,3046.45,599.97,582.82,20.26,0000 0000 0000 0000 000000
2017-04-27 10:54:15,0.22,1.50,0.00,27.64,30.67,33.40,14.13,48.33,1009.78,2015.16,2889.14,2667.30,3043.18,599.59,582.47,20.31,0000 0000 0000 0000 000000
2017-04-27 10:59:16,0.20,1.51,0.00,27.63,30.67,33.39,14.26,48.42,1009.78,2015.14,2885.29,2664.61,3040.14,600.29,583.13,20.36,0000 0000 0000 0000 000000
2017-04-27 11:04:18,0.20,1.52,0.00,27.61,30.67,33.39,14.06,48.43,1009.78,2015.28,2882.10,2662.28,3037.44,599.71,582.67,20.41,0000 0000 0000 0000 000000
2017-04-27 11:09:19,0.12,1.53,0.00,27.60,30.67,33.39,14.22,48.46,1009.78,2015.25,2879.42,2660.34,3035.23,600.14,583.11,20.46,0000 0000 0000 0000 000000
2017-04-27 11:14:20,0.13,1.54,0.00,27.60,30.67,33.40,14.13,48.37,1009.78,2015.09,2877.20,2658.53,3033.27,600.07,583.01,20.51,0000 0000 0000 0000 000000
2017-04-27 11:19:22,0.14,1.54,0.00,27.57,30.67,33.38,14.03,48.36,1009.78,2015.05,2874.79,2656.77,3031.28,599.85,582.97,20.56,0000 0000 0000 0000 000000
2017-04-27 11:24:22,0.13,1.55,0.00,27.54,30.67,33.38,14.24,48.47,1009.79,2015.05,2872.37,2655.08,3029.31,600.23,583.31,20.61,0000 0000 0000 0000 000000
2017-04-27 11:29:23,0.13,1.56,0.00,27.54,30.67,33.39,14.23,48.51,1009.80,2015.06,2869.97,2653.35,3027.38,600.20,583.30,20.66,0000 0000 0000 0000 000000
2017-04-27 11:34:25,0.14,1.56,0.00,27.52,30.67,33.37,14.21,48.40,1009.80,2015.05,2867.61,2651.71,3025.54,600.18,583.23,20.71,0000 0000 0000 0000 000000
2017-04-27 11:39:26,0.11,1.57,0.00,27.50,30.65,33.37,14.07,48.37,1009.79,2015.07,2865.45,2650.24,3023.80,600.00,583.15,20.76,0000 0000 0000 0000 000000
2017-04-27 11:44:27,0.12,1.58,0.00,27.50,30.65,33.37,14.06,48.38,1009.79,2015.05,2863.35,2648.71,3022.08,599.88,583.02,20.81,0000 0000 0000 0000 000000
2017-04-27 11:49:29,0.10,1.58,0.00,27.48,30.65,33.34,14.14,48.32,1009.79,2015.05,2861.50,2647.41,3020.55,600.00,583.26,20.86,0000 0000 0000 0000 000000
2017-04-27 11:54:30,0.14,1.59,0.00,27.44,30.64,33.36,14.13,48.34,1009.78,2015.04,2859.31,2645.74,3018.79,600.09,583.42,20.91,0000 0000 0000 0000 000000
2017-04-27 11:59:31,0.13,1.60,0.00,27.43,30.62,33.36,14.30,48.45,1009.79,2015.06,2856.79,2643.96,3016.77,600.44,583.75,20.96,0000 0000 0000 0000 000000
2017-04-27 12:04:33,0.12,1.60,0.00,27.43,30.62,33.35,14.14,48.43,1009.79,2015.10,2854.62,2642.59,3015.02,599.93,583.25,21.01,0000 0000 0000 0000 000000
2017-04-27 12:09:34,0.10,1.61,0.00,27.40,30.61,33.36,14.13,48.38,1009.78,2015.08,2852.70,2641.12,3013.45,599.78,583.11,21.06,0000 0000 0000 0000 000000
2017-04-27 12:14:35,0.13,1.61,0.00,27.37,30.60,33.34,14.06,48.42,1009.78,2015.05,2850.67,2639.63,3011.76,599.75,583.18,21.11,0000 0000 0000 0000 000000
2017-04-27 12:19:37,0.13,1.62,0.00,27.35,30.60,33.30,14.16,48.42,1009.78,2015.17,2848.44,2638.10,3009.94,599.88,583.35,21.16,0000 0000 0000 0000 000000
2017-04-27 12:24:38,0.12,1.63,0.00,27.32,30.58,33.28,14.30,48.49,1009.78,2015.22,2846.23,2636.69,3008.28,599.90,583.43,21.21,0000 0000 0000 0000 000000
2017-04-27 12:29:39,0.10,1.63,0.00,27.29,30.57,33.27,14.21,48.42,1009.78,2015.41,2844.62,2635.59,3007.08,600.01,583.49,21.26,0000 0000 0000 0000 000000
2017-04-27 12:34:41,0.13,1.64,0.00,27.28,30.56,33.26,14.20,48.49,1009.78,2015.48,2842.49,2634.01,3005.43,599.91,583.56,21.31,0000 0000 0000 0000 000000
2017-04-27 12:39:42,0.13,1.65,0.00,27.26,30.55,33.30,14.21,48.52,1009.78,2015.53,2840.09,2632.34,3003.53,600.03,583.61,21.36,0000 0000 0000 0000 000000
2017-04-27 12:44:44,0.16,1.65,0.00,27.25,30.53,33.28,14.29,48.45,1009.78,2015.80,2837.93,2630.81,3001.84,600.28,583.92,21.41,0000 0000 0000 0000 000000
2017-04-27 12:49:45,0.13,1.66,0.00,27.22,30.52,33.23,14.21,48.54,1009.78,2015.88,2835.58,2629.32,3000.11,600.07,583.80,21.46,0000 0000 0000 0000 000000
2017-04-27 12:54:46,0.14,1.67,0.00,27.20,30.50,33.31,14.20,48.53,1009.78,2015.92,2833.16,2627.70,2998.20,599.86,583.58,21.51,0000 0000 0000 0000 000000